FENGYUN 1C DEB, 38143

Orbit data source: Space-Track

FENGYUN 1C DEB, 38143 is space debris in SSO originally from a launch on Mon, 10 May 1999 UTC launched from the Taiyaun Space Center, China (TSC). Fengyun 1C debris stems from the Chinese weather satellite Fengyun-1C, which was intentionally destroyed by a Chinese anti-satellite missile in 2007. This event dramatically increased the amount of space debris, with thousands of trackable fragments posing hazards to satellites and human spaceflight. The Fengyun 1C debris cloud has become a focal point in discussions about space sustainability and the need for international regulations to prevent the creation of new debris.

Loading next visibility...
Identifier
38143, 1999-025EQQ
Orbit
SSO
Country
Flag of CNCN / PRC
Related business
Manufacturer
Unknown
Mission
Spacecraft
Bus & Motor
Unknown
Mass
Unknown
Launch date (UTC)
1999-05-10 (27 years ago)
Launch vehicle
Unknown
Launch site
Taiyaun Space Center, China (TSC)
Object type
Payload
Rocket body
Debris
Shape & HBR
Unknown shape, 0.1 m
Radar Cross Section
Small (<0.1 m²)

Expand to show TLE details & history
Last TLE update: 2 days ago

TLE from 2 days ago
0 FENGYUN 1C DEB
1 38143U 99025EQQ 26207.97206314  .00000582  00000-0  38245-3 0  9993
2 38143  99.0030 267.4437 0054168 313.7471  45.9218 14.05311550634608
Epoch: 2026-07-26T23:19Z
TLE epoch observation values (Epoch: 2026-07-26T23:19:46.255Z)
Latitude
-0.00009°
Longitude
-27.16134°
Altitude
851.118 km
Speed
7.441 km/s
True Right ascension
17h 49m 46s
True Declination
0° 00' 00"
Sunlit
Object was in full shadow at epoch
Visualization orbit readout
Latitude
Unknown
Longitude
Unknown
Altitude
Unknown
Speed
Unknown
Apparent Right ascension
Unknown
Apparent Declination
Unknown
Sunlit
N/A
Visualization observer readout
Local Sidereal Time
01:22:48
Azimuth
Unknown
Elevation
Unknown
Doppler factor
Unknown
Orbital elements
Apogee altitude
911.929 km
Perigee altitude
833.376 km
Semi-major axis
7,250.789 km
Eccentricity
0.00542
Inclination
99.003°
RAAN
267.4437°
Arg. of periapsis
313.7471°
True anomaly
46.36982°
Mean anomaly
45.9218°
Eccentric anomaly
46.1456°
Mean motion
3.51532 °/min
Orbital period
102.41 mins
BSTAR
0.00038245
Loading maneuver chart data...
Computing Atmospheric mass density...
Loading historical data...
Loading historical data...
Loading historical data...
Loading historical data...
Loading historical data...
Loading historical data...
Loading historical data...

Documentation

Showing up to 5 results
|